Regional Weather Roundup
Issued by NWS

Home | Current Version | Previous Version | Text Only | Print | Product List | Glossary Off
Versions: 1 2 3 4 5 6 7 8 9 10 11 12 13 14 15 16 17 18 19 20 21 22 23 24 25 26 27 28 29 30 31 32 33 34 35 36 37 38 39 40 41 42 43 44 45 46 47 48 49 50

000
ASUS45 KBOI 260810
RWRID

IDAHO REGIONAL WEATHER ROUNDUP
NATIONAL WEATHER SERVICE BOISE ID
200 AM MDT FRI AUG 26 2016

NOTE: "FAIR" INDICATES FEW OR NO CLOUDS BELOW 12000 FEET
WITH NO SIGNIFICANT WEATHER AND/OR OBSTRUCTIONS TO VISIBILITY

IDZ012-014-260900-
SOUTHWEST IDAHO


CITY           SKY/WX    TMP DP  RH WIND       PRES   REMARKS
BOISE          FAIR      61  32  33 SE6       29.97S
CALDWELL       FAIR      58  45  62 S5        29.96F
MOUNTAIN HOME  FAIR      55  33  44 W7        29.97S
$$

IDZ016-017-260900-
SOUTHCENTRAL IDAHO


CITY           SKY/WX    TMP DP  RH WIND       PRES   REMARKS
BURLEY         FAIR      50  37  61 S5        30.03S
JEROME         FAIR      57  32  38 SE6       30.03S
TWIN FALLS     FAIR      56  27  32 S12       30.03F
$$

IDZ019>023-260900-
SOUTHEAST IDAHO


CITY           SKY/WX    TMP DP  RH WIND       PRES   REMARKS
IDAHO FALLS    FAIR      53  33  46 NE7       30.08S
POCATELLO      FAIR      49  30  48 E7        30.07R
REXBURG        MOCLDY    57  32  38 E3        30.10F
$$

IDZ006-010-011-018-031-032-260900-
CENTRAL IDAHO MOUNTAINS


CITY           SKY/WX    TMP DP  RH WIND       PRES   REMARKS
MCCALL         FAIR      58  34  40 N8        30.11S
HAILEY         FAIR      52  32  46 NW9       30.11S
STANLEY          N/A     39  27  62 S5        30.18S
SALMON         FAIR      55  34  44 CALM      30.09S
CHALLIS        FAIR      57  31  37 NW6       30.10S
$$

IDZ002-004-006-007-026-260900-
NORTHERN IDAHO


CITY           SKY/WX    TMP DP  RH WIND       PRES   REMARKS
LEWISTON       FAIR      65  33  30 SE5       29.98S
LOWELL           N/A     55  45  68 NW3       30.05R
COEUR D`ALENE  FAIR      63  41  45 N12       30.03S
MULLAN PASS    FAIR      53  27  36 VRB3      30.20F
$$



USA.gov is the U.S. government's official web portal to all federal, state and local government web resources and services.